Notices

What's New in latest Release from April 7th, 2021:

- Updated Glossary, including Speed of Maximum Gust, and Total Hourly Precipitation

- Updated national and regional climate services offices contacts and prices information

- Addition of station inventory lists for 1981-2010, 1971-2000, and 1961-1990 Normals.

If you haven't already, please take our survey and provide feedback about our website: https://eccc.sondage-survey.ca/f/LanguageSelection.aspx?s=442ca660-fcf1-47c0-95a9-59707d6fd709

Hourly Data Report for April 29, 2021

KUGAARUK CLIMATE
NUNAVUT
Current Station Operator: ECCC - MSC

68°32'15.060" N
89°47'47.020" W
15.80 m
2303094
71407
NBB

Download Data

Hourly Data (April 2021)
Hourly Data Report for April 29, 2021
TIME
LST
Temp Definition
°C
Dew Point Definition
°C
Rel Hum Definition
%
Precip. Amount Definition
mm

Wind Dir Definition
10's deg

Wind Spd Definition
km/h
Visibility Definition
km
Stn Press Definition
kPa
Hmdx Definition


Wind Chill Definition


Weather Definition


00:00 -16.0 -18.9 78 0.0 7 10   101.58   -22 LegendNANA
01:00 -18.6 -21.5 78 0.0 7 18   101.63   -28 LegendNANA
02:00 -21.4 -24.2 79 0.0 4 11   101.71   -29 LegendNANA
03:00 -19.4 -22.1 79 0.0 9 22   101.70   -30 LegendNANA
04:00 -19.9 -22.3 82 0.0 4 20   101.80   -30 LegendNANA
05:00 -18.4 -21.5 77 0.0 4 14   101.84   -27 LegendNANA
06:00 -18.1 -20.9 79 0.0 5 16   101.90   -27 LegendNANA
07:00 -16.4 -19.7 76 0.0 4 11   101.92   -23 LegendNANA
08:00 -13.2 -17.8 68 0.0 9 13   101.92   -20 LegendNANA
09:00 -12.7 -16.9 71 0.0 14 19   101.92   -21 LegendNANA
10:00 -13.2 -17.2 72 0.0 9 14   101.98   -20 LegendNANA
11:00 -12.0 -16.3 70 0.0 13 17   101.98   -20 LegendNANA
12:00 -11.2 -15.1 73 0.0 14 31   101.98   -21 LegendNANA
13:00 -10.6 -14.6 72 0.0 16 30   102.03   -20 LegendNANA
14:00 -10.5 -14.2 74 0.0 14 24   102.12   -19 LegendNANA
15:00 -10.0 -14.0 73 0.0 15 24   102.11   -19 LegendNANA
16:00 -10.0 -13.5 76 0.0 15 30   102.14   -20 LegendNANA
17:00 -10.2 -13.9 74 0.0 6 12   102.19   -16 LegendNANA
18:00 -11.0 -14.2 77 0.0 5 9   102.22   -16 LegendNANA
19:00 -12.7 -15.0 83 0.0 6 13   102.28   -20 LegendNANA
20:00 -15.6 -17.7 84 0.0 3 12   102.31   -23 LegendNANA
21:00 -16.6 -18.3 86 0.0 7 14   102.32   -25 LegendNANA
22:00 -17.4 -19.0 88 0.0 4 10   102.32   -24 LegendNANA
23:00 -18.7 -20.5 86 0.0 3 11   102.36   -26 LegendNANA

Notes on Data Quality.

Legend

  • E = Estimated
  • M = Missing
  • NA = Not Available*
  • [empty] = Indicates an unobserved value
Date modified: